Location: Nebel
(54.6502°N, 8.3475°E)
Time: 22:07:58
(UTC+01:00)

Envisat - Pass Details

Date: 04 December 2022
Orbit: 763 x 765 km, 98.2° (Epoch: 08 February)

Event Time Altitude Azimuth Distance (km) Brightness Sun altitude
Rises 03:00:53 0° 28° (NNE) 3,248 6.8 -45.4°
Reaches altitude 10° 03:04:54 10° 60° (ENE) 2,314 6.1 -44.9°
Enters shadow 03:05:11 11° 63° (ENE) 2,278 6.0 -44.9°
